Location: Newark
(48.5667°N, 3.3000°E)
Time: 10:16:31
(UTC+00:00)

ISS - Visible Passes

Search period start: 23 October 2019 00:00
Search period end: 02 November 2019 00:00
Orbit: 411 x 421 km, 51.6° (Epoch: 23 October)

Date Brightness Start Highest point End Pass type
(mag) Time Alt. Az. Time Alt. Az. Time Alt. Az.
23 Oct -0.7 05:37:22 10° S 05:39:16 14° SE 05:41:10 10° ESE visible
25 Oct -1.9 05:35:33 10° SSW 05:38:33 31° SE 05:41:34 10° E visible
26 Oct -1.3 04:47:33 10° S 04:50:08 20° SE 04:52:43 10° E visible
27 Oct -1.0 04:00:54 12° SSE 04:01:45 13° SE 04:03:28 10° ESE visible
27 Oct -3.4 05:34:37 10° SW 05:37:58 64° SSE 05:41:19 10° ENE visible
28 Oct -2.8 04:47:43 23° SSW 04:49:26 43° SSE 04:52:39 10° ENE visible
29 Oct -1.9 04:01:27 27° SE 04:01:27 27° SE 04:03:54 10° E visible
29 Oct -3.7 05:34:21 12° WSW 05:37:29 73° NNW 05:40:52 10° ENE visible
30 Oct -3.8 04:47:58 47° WSW 04:48:51 86° SSE 04:52:14 10° ENE visible
31 Oct -2.1 04:01:29 34° E 04:01:29 34° E 04:03:35 10° ENE visible
31 Oct -3.4 05:34:23 15° W 05:37:03 52° N 05:40:22 10° ENE visible
01 Nov -3.6 04:47:50 52° WNW 04:48:21 60° NNW 04:51:42 10° ENE visible
